�������l�o���
Date,Time,MP-1(��Sv/h),MP-2(��Sv/h),MP-3(��Sv/h),MP-4(��Sv/h),MP-5(��Sv/h),MP-6(��Sv/h),MP-7(��Sv/h),����,����(m/s),���J
2018/08/06,00:00,0.332,0.207,0.340,0.323,0.293,0.165,0.099,�k�k��,4.8,��
2018/08/06,00:10,0.331,0.208,0.336,0.325,0.292,0.164,0.100,�k�k��,6.2,��
2018/08/06,00:20,0.330,0.205,0.337,0.327,0.290,0.164,0.100,�k�k��,2.4,��
2018/08/06,00:30,0.330,0.206,0.342,0.324,0.294,0.164,0.100,�k��,2.7,��
2018/08/06,00:40,0.335,0.208,0.339,0.322,0.293,0.164,0.099,�k�k��,4.1,��
2018/08/06,00:50,0.332,0.207,0.337,0.327,0.291,0.164,0.099,�k�k��,3.2,��
2018/08/06,01:00,0.330,0.205,0.341,0.327,0.293,0.163,0.101,�k�k��,2.3,��
2018/08/06,01:10,0.334,0.207,0.341,0.325,0.293,0.164,0.100,�k�k��,1.1,��
2018/08/06,01:20,0.333,0.206,0.338,0.322,0.291,0.164,0.099,�k,2.9,��
2018/08/06,01:30,0.329,0.205,0.336,0.326,0.291,0.164,0.100,�k,3.8,��
2018/08/06,01:40,0.331,0.206,0.340,0.327,0.295,0.163,0.099,�k,2.4,��
2018/08/06,01:50,0.333,0.207,0.338,0.324,0.292,0.165,0.100,�k,2.1,��
2018/08/06,02:00,0.332,0.207,0.336,0.324,0.290,0.165,0.099,�k,1.6,��
2018/08/06,02:10,0.329,0.205,0.340,0.326,0.294,0.163,0.100,�k�k��,3.6,��
2018/08/06,02:20,0.333,0.207,0.340,0.325,0.293,0.163,0.100,�k�k��,2.4,��
2018/08/06,02:30,0.333,0.206,0.337,0.323,0.290,0.165,0.099,�k,2.7,��
2018/08/06,02:40,0.330,0.205,0.337,0.325,0.292,0.163,0.099,�k�k��,3.9,��
2018/08/06,02:50,0.332,0.207,0.340,0.327,0.294,0.164,0.100,�k�k��,2.2,��
2018/08/06,03:00,0.335,0.206,0.340,0.324,0.291,0.164,0.100,�k�k��,3.8,��
2018/08/06,03:10,0.331,0.205,0.336,0.324,0.290,0.165,0.100,�k�k��,2.0,��
2018/08/06,03:20,0.330,0.207,0.341,0.328,0.295,0.163,0.101,�k,2.4,�L
2018/08/06,03:30,0.336,0.208,0.341,0.326,0.294,0.165,0.102,�k,3.5,�L
2018/08/06,03:40,0.333,0.206,0.337,0.323,0.290,0.166,0.101,�k,3.1,��
2018/08/06,03:50,0.330,0.208,0.339,0.327,0.296,0.165,0.101,�k�k��,3.7,��
2018/08/06,04:00,0.334,0.207,0.341,0.327,0.293,0.164,0.102,�k�k��,3.2,�L
2018/08/06,04:10,0.332,0.208,0.338,0.324,0.293,0.166,0.101,�k�k��,2.6,��
2018/08/06,04:20,0.332,0.208,0.339,0.326,0.294,0.166,0.102,�k�k��,2.4,��
2018/08/06,04:30,0.333,0.209,0.341,0.327,0.295,0.165,0.102,�k��,2.6,��
2018/08/06,04:40,0.334,0.207,0.338,0.323,0.292,0.166,0.100,�k�k��,3.6,�L
2018/08/06,04:50,0.331,0.209,0.340,0.325,0.294,0.165,0.102,�k,3.8,�L
2018/08/06,05:00,0.333,0.208,0.342,0.328,0.294,0.164,0.102,�k,3.7,��
2018/08/06,05:10,0.333,0.207,0.337,0.324,0.292,0.166,0.101,�k,3.9,��
2018/08/06,05:20,0.332,0.209,0.340,0.324,0.292,0.166,0.101,�k,3.0,��
2018/08/06,05:30,0.332,0.208,0.340,0.326,0.294,0.165,0.101,�k,4.3,��
2018/08/06,05:40,0.333,0.206,0.338,0.323,0.292,0.164,0.100,�k,4.3,�L
2018/08/06,05:50,0.332,0.208,0.339,0.323,0.291,0.166,0.101,�k,5.1,�L
2018/08/06,06:00,0.330,0.207,0.341,0.327,0.294,0.165,0.101,�k,4.6,�L
2018/08/06,06:10,0.335,0.206,0.336,0.323,0.291,0.164,0.101,�k�k��,4.6,��
2018/08/06,06:20,0.330,0.208,0.338,0.322,0.290,0.166,0.101,�k�k��,5.5,�L
2018/08/06,06:30,0.330,0.206,0.340,0.327,0.294,0.165,0.101,�k�k��,5.8,�L
2018/08/06,06:40,0.334,0.206,0.337,0.324,0.292,0.164,0.101,�k�k��,6.7,��
2018/08/06,06:50,0.333,0.208,0.338,0.321,0.289,0.166,0.101,�k,6.7,��
2018/08/06,07:00,0.329,0.206,0.341,0.325,0.293,0.166,0.101,�k�k��,7.1,�L
2018/08/06,07:10,0.332,0.205,0.338,0.324,0.292,0.163,0.100,�k,6.2,��
2018/08/06,07:20,0.334,0.207,0.337,0.321,0.289,0.164,0.100,�k�k��,6.5,��
2018/08/06,07:30,0.330,0.205,0.341,0.325,0.291,0.166,0.100,�k�k��,6.1,��
2018/08/06,07:40,0.331,0.205,0.337,0.324,0.293,0.164,0.102,�k�k��,3.5,��
2018/08/06,07:50,0.334,0.207,0.336,0.323,0.289,0.164,0.101,�k,3.7,��
2018/08/06,08:00,0.332,0.206,0.340,0.321,0.288,0.165,0.099,�k,3.0,��
2018/08/06,08:10,0.330,0.204,0.338,0.325,0.292,0.165,0.099,�k,3.1,��
2018/08/06,08:20,0.332,0.206,0.336,0.322,0.291,0.165,0.101,�k,3.3,��
2018/08/06,08:30,0.334,0.206,0.337,0.319,0.289,0.163,0.100,�k�k��,3.3,��
2018/08/06,08:40,0.331,0.205,0.340,0.321,0.287,0.163,0.099,�k�k��,3.3,��
2018/08/06,08:50,0.327,0.204,0.337,0.324,0.290,0.164,0.098,�k�k��,3.3,��
2018/08/06,09:00,0.327,0.203,0.337,0.322,0.291,0.164,0.099,�k�k��,2.5,��
2018/08/06,09:10,0.334,0.206,0.334,0.320,0.292,0.162,0.100,�k,3.4,��
2018/08/06,09:20,0.333,0.207,0.339,0.320,0.289,0.162,0.100,�k,4.8,��
2018/08/06,09:30,0.330,0.205,0.338,0.324,0.288,0.163,0.100,�k,3.8,�L
2018/08/06,09:40,0.330,0.204,0.336,0.323,0.293,0.165,0.100,�k�k��,4.2,�L
2018/08/06,09:50,0.335,0.209,0.338,0.324,0.293,0.167,0.102,�k,3.6,�L
2018/08/06,10:00,0.335,0.212,0.343,0.327,0.293,0.168,0.104,�k�k��,4.2,�L
2018/08/06,10:10,0.334,0.210,0.341,0.328,0.292,0.168,0.104,�k�k��,7.5,�L
2018/08/06,10:20,0.333,0.209,0.337,0.326,0.297,0.169,0.103,�k,4.9,��
2018/08/06,10:30,0.336,0.209,0.344,0.323,0.295,0.167,0.104,�k,6.6,��
2018/08/06,10:40,0.333,0.209,0.340,0.326,0.291,0.167,0.103,�k,5.9,��
2018/08/06,10:50,0.330,0.206,0.339,0.327,0.290,0.165,0.102,�k,5.4,��
2018/08/06,11:00,0.334,0.207,0.338,0.323,0.293,0.166,0.100,�k,5.8,�L
2018/08/06,11:10,0.334,0.208,0.341,0.320,0.291,0.165,0.101,�k,5.6,�L
2018/08/06,11:20,0.332,0.207,0.340,0.324,0.290,0.164,0.101,�k,6.1,�L
2018/08/06,11:30,0.328,0.205,0.336,0.325,0.289,0.165,0.100,�k,7.2,�L
2018/08/06,11:40,0.332,0.206,0.337,0.322,0.293,0.164,0.099,�k,6.9,��
2018/08/06,11:50,0.335,0.207,0.340,0.320,0.293,0.164,0.100,�k,6.6,��
2018/08/06,12:00,0.334,0.207,0.338,0.324,0.290,0.164,0.101,�k,6.8,�L
2018/08/06,12:10,0.329,0.204,0.335,0.324,0.288,0.163,0.100,�k,6.7,�L
2018/08/06,12:20,0.331,0.207,0.337,0.321,0.292,0.164,0.101,�k�k��,6.9,�L
2018/08/06,12:30,0.333,0.208,0.342,0.321,0.293,0.165,0.100,�k�k��,6.7,�L
2018/08/06,12:40,0.333,0.206,0.338,0.323,0.290,0.164,0.102,�k,7.4,�L
2018/08/06,12:50,0.330,0.206,0.335,0.323,0.289,0.164,0.101,�k,6.6,�L
2018/08/06,13:00,0.335,0.207,0.339,0.322,0.293,0.164,0.100,�k,7.5,�L
2018/08/06,13:10,0.332,0.208,0.340,0.322,0.292,0.165,0.102,�k�k��,9.5,�L
2018/08/06,13:20,0.330,0.206,0.338,0.325,0.290,0.164,0.101,�k�k��,9.2,��
2018/08/06,13:30,0.333,0.207,0.336,0.324,0.290,0.164,0.100,�k,10.6,�L
2018/08/06,13:40,0.334,0.206,0.341,0.321,0.294,0.165,0.100,�k�k��,10.0,��
2018/08/06,13:50,0.331,0.205,0.338,0.323,0.292,0.165,0.101,�k�k��,10.9,��
2018/08/06,14:00,0.330,0.206,0.336,0.326,0.289,0.163,0.100,�k�k��,9.6,��
2018/08/06,14:10,0.334,0.206,0.338,0.322,0.291,0.163,0.099,�k,8.5,��
2018/08/06,14:20,0.330,0.205,0.337,0.320,0.292,0.164,0.100,�k�k��,10.3,��
2018/08/06,14:30,0.330,0.206,0.336,0.324,0.290,0.164,0.100,�k,8.4,��
2018/08/06,14:40,0.335,0.208,0.338,0.323,0.290,0.164,0.099,�k,8.9,�L
2018/08/06,14:50,0.331,0.206,0.341,0.321,0.293,0.163,0.099,�k,8.4,�L
2018/08/06,15:00,0.331,0.207,0.337,0.323,0.290,0.164,0.101,�k�k��,10.6,�L
2018/08/06,15:10,0.336,0.206,0.338,0.324,0.291,0.163,0.100,�k,9.5,�L
2018/08/06,15:20,0.331,0.206,0.339,0.321,0.294,0.163,0.100,�k,10.1,��
2018/08/06,15:30,0.330,0.207,0.337,0.321,0.291,0.165,0.100,�k,9.8,��
2018/08/06,15:40,0.333,0.206,0.337,0.325,0.290,0.165,0.100,�k,9.6,�L
2018/08/06,15:50,0.331,0.206,0.339,0.323,0.295,0.163,0.100,�k,10.3,�L
2018/08/06,16:00,0.334,0.207,0.336,0.321,0.291,0.166,0.101,�k,10.6,�L
2018/08/06,16:10,0.333,0.205,0.340,0.324,0.292,0.165,0.100,�k,10.0,�L
2018/08/06,16:20,0.330,0.206,0.339,0.322,0.293,0.163,0.101,�k,9.5,�L
2018/08/06,16:30,0.333,0.206,0.337,0.322,0.289,0.167,0.101,�k,10.4,�L
2018/08/06,16:40,0.330,0.207,0.340,0.324,0.294,0.164,0.100,�k,10.6,�L
2018/08/06,16:50,0.332,0.208,0.339,0.321,0.290,0.164,0.101,�k,8.3,�L
2018/08/06,17:00,0.332,0.206,0.340,0.323,0.291,0.167,0.100,�k,9.6,�L
2018/08/06,17:10,0.330,0.207,0.338,0.322,0.291,0.164,0.101,�k,10.7,�L
2018/08/06,17:20,0.333,0.205,0.336,0.320,0.289,0.165,0.101,�k,10.6,�L
2018/08/06,17:30,0.328,0.207,0.340,0.322,0.291,0.164,0.100,�k,9.8,�L
2018/08/06,17:40,0.329,0.206,0.337,0.320,0.289,0.164,0.101,�k,10.0,�L
2018/08/06,17:50,0.328,0.206,0.341,0.321,0.290,0.164,0.101,�k,9.8,�L
2018/08/06,18:00,0.329,0.205,0.336,0.320,0.290,0.164,0.101,�k,9.8,�L
2018/08/06,18:10,0.330,0.205,0.336,0.318,0.288,0.163,0.101,�k,9.5,�L
2018/08/06,18:20,0.327,0.205,0.337,0.320,0.290,0.165,0.100,�k,9.3,�L
2018/08/06,18:30,0.330,0.204,0.335,0.317,0.288,0.164,0.101,�k�k��,8.7,�L
2018/08/06,18:40,0.325,0.204,0.338,0.320,0.291,0.163,0.100,�k�k��,9.3,�L
2018/08/06,18:50,0.330,0.204,0.335,0.318,0.288,0.163,0.100,�k�k��,10.1,�L
2018/08/06,19:00,0.327,0.205,0.338,0.319,0.287,0.163,0.100,�k,9.2,�L
2018/08/06,19:10,0.326,0.203,0.336,0.318,0.289,0.163,0.099,�k�k��,9.0,�L
2018/08/06,19:20,0.328,0.205,0.337,0.317,0.286,0.163,0.100,�k�k��,10.1,�L
2018/08/06,19:30,0.324,0.203,0.335,0.318,0.290,0.162,0.099,�k,9.6,�L
2018/08/06,19:40,0.326,0.204,0.335,0.316,0.286,0.162,0.099,�k�k��,9.5,�L
2018/08/06,19:50,0.325,0.203,0.336,0.319,0.288,0.161,0.098,�k�k��,10.3,�L
2018/08/06,20:00,0.326,0.203,0.333,0.318,0.288,0.162,0.100,�k,10.3,�L
2018/08/06,20:10,0.325,0.203,0.335,0.317,0.286,0.162,0.099,�k,9.8,�L
2018/08/06,20:20,0.323,0.201,0.333,0.318,0.289,0.162,0.100,�k,9.6,�L
2018/08/06,20:30,0.326,0.204,0.334,0.314,0.285,0.161,0.099,�k�k��,9.3,�L
2018/08/06,20:40,0.323,0.201,0.334,0.317,0.287,0.160,0.099,�k,9.3,�L
2018/08/06,20:50,0.325,0.203,0.333,0.314,0.284,0.162,0.099,�k,9.3,�L
2018/08/06,21:00,0.323,0.201,0.333,0.315,0.286,0.161,0.099,�k,9.5,�L
2018/08/06,21:10,0.321,0.202,0.330,0.314,0.287,0.160,0.099,�k,9.6,�L
2018/08/06,21:20,0.323,0.201,0.333,0.313,0.283,0.162,0.099,�k,9.3,�L
2018/08/06,21:30,0.320,0.201,0.328,0.313,0.288,0.159,0.098,�k,8.9,�L
2018/08/06,21:40,0.321,0.201,0.329,0.311,0.284,0.159,0.100,�k,8.2,�L
2018/08/06,21:50,0.319,0.199,0.327,0.312,0.285,0.161,0.100,�k�k��,8.5,�L
2018/08/06,22:00,0.320,0.201,0.326,0.313,0.286,0.159,0.100,�k�k��,10.4,�L
2018/08/06,22:10,0.321,0.200,0.329,0.310,0.283,0.161,0.099,�k,9.5,�L
2018/08/06,22:20,0.318,0.199,0.326,0.313,0.287,0.159,0.099,�k,9.8,�L
2018/08/06,22:30,0.321,0.201,0.327,0.311,0.284,0.158,0.100,�k,10.0,�L
2018/08/06,22:40,0.320,0.200,0.324,0.311,0.284,0.160,0.099,�k�k��,9.5,�L
2018/08/06,22:50,0.319,0.201,0.325,0.311,0.286,0.159,0.099,�k,9.8,�L
2018/08/06,23:00,0.320,0.199,0.328,0.309,0.283,0.159,0.099,�k,10.7,�L
2018/08/06,23:10,0.317,0.200,0.323,0.313,0.287,0.158,0.099,�k,9.2,�L
2018/08/06,23:20,0.319,0.199,0.326,0.309,0.285,0.157,0.099,�k�k��,10.4,�L
2018/08/06,23:30,0.316,0.198,0.324,0.310,0.285,0.159,0.098,�k�k��,10.4,�L
2018/08/06,23:40,0.318,0.199,0.325,0.311,0.285,0.158,0.100,�k,9.0,�L
2018/08/06,23:50,0.319,0.200,0.324,0.310,0.285,0.158,0.099,�k,8.3,�L
